KN4URY Weather Reports


Display with metric or nautical units.
time (UTC)temp
F
wind
direction
speed
MPH
gust
MPH
rain 1hr
in
rain 24hr
in
rain mn
in
humidity
%
barometer
mb
20260510224316 84 341 3.0 7.0 0.00 0.00 0.00 36 1012.4
20260510223333 84 341 1.0 8.0 0.00 0.00 0.00 36 1012.4
20260510222326 85 341 3.0 7.0 0.00 0.00 0.00 35 1012.6
20260510221344 85 341 3.0 9.0 0.00 0.00 0.00 35 1012.5
20260510220314 85 341 3.0 7.0 0.00 0.00 0.00 36 1012.5
20260510215331 85 341 2.0 8.0 0.00 0.00 0.00 35 1012.6
20260510214322 85 341 3.0 11.0 0.00 0.00 0.00 34 1012.6
20260510213313 85 341 4.0 7.0 0.00 0.00 0.00 33 1012.6
20260510212350 85 341 2.0 7.0 0.00 0.00 0.00 34 1012.7
20260510211318 85 341 3.0 8.0 0.00 0.00 0.00 33 1012.7
20260510210334 85 341 5.0 15.0 0.00 0.00 0.00 33 1012.6
20260510205324 85 341 3.0 9.0 0.00 0.00 0.00 32 1012.7
20260510204313 85 341 3.0 15.0 0.00 0.00 0.00 34 1012.6
20260510203329 86 341 1.0 6.0 0.00 0.00 0.00 35 1012.7
20260510202319 85 341 4.0 9.0 0.00 0.00 0.00 35 1012.7
20260510201314 85 341 3.0 7.0 0.00 0.00 0.00 34 1012.8
20260510200331 85 341 5.0 9.0 0.00 0.00 0.00 33 1012.8
20260510195324 85 341 3.0 9.0 0.00 0.00 0.00 36 1012.9
20260510194319 85 341 3.0 9.0 0.00 0.00 0.00 33 1012.9
20260510193357 85 341 2.0 8.0 0.00 0.00 0.00 34 1013.1
20260510192325 85 341 3.0 11.0 0.00 0.00 0.00 34 1013.3
20260510191314 85 341 3.0 8.0 0.00 0.00 0.00 33 1013.4
20260510190332 84 341 3.0 7.0 0.00 0.00 0.00 34 1013.4
20260510185324 84 341 2.0 8.0 0.00 0.00 0.00 33 1013.4
20260510184313 85 341 2.0 5.0 0.00 0.00 0.00 34 1013.4
20260510183329 83 341 2.0 8.0 0.00 0.00 0.00 34 1013.5
20260510182348 84 341 3.0 8.0 0.00 0.00 0.00 37 1013.5
20260510181323 83 341 3.0 8.0 0.00 0.00 0.00 37 1013.7
20260510180337 83 341 5.0 8.0 0.00 0.00 0.00 37 1013.9
20260510175348 85 341 2.0 5.0 0.00 0.00 0.00 34 1013.7
20260510174317 82 341 3.0 7.0 0.00 0.00 0.00 39 1013.9
20260510173313 83 341 4.0 12.0 0.00 0.00 0.00 35 1014.0
20260510172328 82 341 3.0 9.0 0.00 0.00 0.00 36 1014.0
20260510171320 82 341 2.0 7.0 0.00 0.00 0.00 37 1014.0
20260510170337 81 341 1.0 9.0 0.00 0.00 0.00 40 1014.0
20260510165323 81 341 2.0 7.0 0.00 0.00 0.00 40 1014.1
20260510164313 81 341 2.0 5.0 0.00 0.00 0.00 38 1014.5
20260510163332 80 341 2.0 8.0 0.00 0.00 0.00 40 1014.5
20260510162320 80 341 1.0 6.0 0.00 0.00 0.00 43 1014.5
20260510161312 80 341 1.0 5.0 0.00 0.00 0.00 45 1014.8
20260510160329 80 341 2.0 4.0 0.00 0.00 0.00 47 1014.8
20260510155318 79 341 2.0 6.0 0.00 0.00 0.00 46 1014.7
20260510154335 79 341 2.0 5.0 0.00 0.00 0.00 50 1014.9
20260510153350 78 341 1.0 3.0 0.00 0.00 0.00 53 1014.8
20260510152321 77 341 2.0 7.0 0.00 0.00 0.00 51 1014.7
20260510151337 77 341 1.0 4.0 0.00 0.00 0.00 51 1014.8
20260510150326 76 341 2.0 7.0 0.00 0.00 0.00 54 1015.0
20260510145317 75 341 1.0 6.0 0.00 0.00 0.00 54 1015.1
20260510144312 75 341 2.0 5.0 0.00 0.00 0.00 56 1014.9
20260510143347 74 341 2.0 5.0 0.00 0.00 0.00 58 1014.9
20260510142320 74 341 1.0 6.0 0.00 0.00 0.00 59 1014.9
20260510141312 72 341 0.0 5.0 0.00 0.00 0.00 62 1014.9
20260510140329 71 341 2.0 6.0 0.00 0.00 0.00 65 1014.9
20260510135319 70 341 2.0 5.0 0.00 0.00 0.00 67 1014.8
20260510134311 69 341 2.0 5.0 0.00 0.00 0.00 68 1015.0
20260510133329 68 341 1.0 5.0 0.00 0.00 0.00 70 1014.8
20260510132319 67 341 1.0 2.0 0.00 0.00 0.00 72 1014.8
20260510131337 66 341 0.0 4.0 0.00 0.00 0.00 73 1014.7
20260510130326 66 341 1.0 3.0 0.00 0.00 0.00 76 1014.8
20260510125315 65 341 1.0 4.0 0.00 0.00 0.00 77 1014.7
20260510124331 63 341 1.0 2.0 0.00 0.00 0.00 79 1014.5
20260510123322 63 341 1.0 2.0 0.00 0.00 0.00 80 1014.4
20260510122316 62 341 1.0 2.0 0.00 0.00 0.00 81 1014.4
20260510121335 61 341 1.0 2.0 0.00 0.00 0.00 81 1014.3
20260510120323 61 341 0.0 3.0 0.00 0.00 0.00 82 1013.9
20260510115319 60 341 0.0 2.0 0.00 0.00 0.00 83 1013.9
20260510114338 60 341 0.0 1.0 0.00 0.00 0.00 83 1013.7
20260510113328 59 341 0.0 1.0 0.00 0.00 0.00 83 1013.5
20260510112318 59 341 0.0 1.0 0.00 0.00 0.00 83 1013.5
20260510111355 59 341 0.0 3.0 0.00 0.00 0.00 83 1013.2
20260510110322 58 341 0.0 1.0 0.00 0.00 0.00 84 1012.8
20260510105329 58 341 0.0 1.0 0.00 0.00 0.00 84 1012.9
20260510104347 59 341 0.0 1.0 0.00 0.00 0.00 84 1012.8
20260510103317 59 341 0.0 2.0 0.00 0.00 0.00 82 1012.6
20260510102313 59 341 0.0 1.0 0.00 0.00 0.00 83 1012.5
20260510101331 59 341 0.0 2.0 0.00 0.00 0.00 84 1012.5
20260510100322 59 341 0.0 3.0 0.00 0.00 0.00 85 1012.4
20260510095311 59 341 0.0 2.0 0.00 0.00 0.00 86 1012.2
20260510094328 59 341 0.0 1.0 0.00 0.00 0.00 88 1012.1
20260510093319 59 341 0.0 1.0 0.00 0.00 0.00 88 1011.8
20260510092355 60 341 0.0 1.0 0.00 0.00 0.00 87 1011.7
20260510091326 60 341 0.0 1.0 0.00 0.00 0.00 88 1011.6
20260510090344 60 341 0.0 3.0 0.00 0.00 0.00 87 1011.5
20260510085312 60 341 0.0 2.0 0.00 0.00 0.00 90 1011.5
20260510084347 60 341 0.0 2.0 0.00 0.00 0.00 91 1011.5
20260510083318 60 341 0.0 2.0 0.00 0.00 0.00 91 1011.6
20260510082335 60 341 0.0 2.0 0.00 0.00 0.00 91 1011.3
20260510081326 61 341 1.0 4.0 0.00 0.00 0.00 91 1011.3
20260510080316 61 341 0.0 2.0 0.00 0.00 0.00 91 1011.3
20260510075332 61 341 0.0 2.0 0.00 0.00 0.00 91 1011.2
20260510074331 61 341 0.0 2.0 0.00 0.00 0.00 91 1011.2
20260510073321 61 341 0.0 1.0 0.00 0.00 0.00 91 1011.2
20260510072338 61 341 0.0 2.0 0.00 0.00 0.00 90 1011.1
20260510071328 61 341 0.0 1.0 0.00 0.00 0.00 90 1011.1
20260510070347 62 341 0.0 2.0 0.00 0.00 0.00 90 1011.0
20260510065318 62 341 1.0 3.0 0.00 0.00 0.00 90 1011.1
20260510064354 62 341 0.0 2.0 0.00 0.00 0.00 89 1011.2
20260510063324 62 341 0.0 2.0 0.00 0.00 0.00 89 1011.2
20260510062313 62 341 0.0 3.0 0.00 0.00 0.00 89 1011.3
20260510061332 62 341 0.0 1.0 0.00 0.00 0.00 89 1011.3
20260510060328 62 341 0.0 2.0 0.00 0.00 0.00 89 1011.3
20260510055315 62 341 0.0 3.0 0.00 0.00 0.00 88 1011.3
20260510054334 62 341 1.0 3.0 0.00 0.00 0.00 88 1011.5
20260510053323 63 341 1.0 3.0 0.00 0.00 0.00 88 1011.7
20260510052318 63 341 1.0 3.0 0.00 0.00 0.00 88 1011.7
20260510051335 63 341 1.0 3.0 0.00 0.00 0.00 88 1011.7
20260510050326 63 341 1.0 5.0 0.00 0.00 0.00 88 1011.7
20260510045318 63 341 1.0 5.0 0.00 0.00 0.00 87 1011.8
20260510044336 63 341 1.0 3.0 0.00 0.00 0.00 87 1011.7
20260510043325 63 341 1.0 4.0 0.00 0.00 0.00 87 1011.6
20260510042313 63 341 1.0 6.0 0.00 0.00 0.00 87 1011.6
20260510041332 63 341 1.0 3.0 0.00 0.00 0.00 87 1011.5
20260510040322 63 341 1.0 3.0 0.00 0.00 0.00 86 1011.3
20260510035337 63 341 1.0 2.0 0.00 0.00 0.00 86 1011.5
20260510034334 63 341 1.0 2.0 0.00 0.00 0.00 85 1011.3
20260510033323 64 341 1.0 3.0 0.00 0.00 0.00 84 1011.1
20260510032342 64 341 0.0 3.0 0.00 0.00 0.00 83 1011.0
20260510031336 64 341 1.0 4.0 0.00 0.00 0.00 82 1011.1
20260510030326 64 341 0.0 3.0 0.00 0.00 0.00 82 1010.9
20260510025342 65 341 1.0 5.0 0.00 0.00 0.00 82 1011.1
20260510024311 65 341 1.0 3.0 0.00 0.00 0.00 81 1010.9
20260510023330 65 341 0.0 4.0 0.00 0.00 0.00 81 1010.9
20260510022319 65 341 0.0 2.0 0.00 0.00 0.00 80 1010.8
20260510021337 65 341 0.0 3.0 0.00 0.00 0.00 80 1010.6
20260510020326 65 341 0.0 1.0 0.00 0.00 0.00 80 1010.5
20260510015316 65 341 0.0 1.0 0.00 0.00 0.00 80 1010.4
20260510014333 65 341 0.0 2.0 0.00 0.00 0.00 79 1010.2
20260510013331 65 341 0.0 2.0 0.00 0.00 0.00 79 1010.0
20260510012322 65 341 0.0 1.0 0.00 0.00 0.00 78 1009.6
20260510011337 66 341 0.0 1.0 0.00 0.00 0.00 77 1009.6
20260510010311 66 341 0.0 1.0 0.00 0.00 0.00 76 1009.6
20260510005330 67 341 0.0 1.0 0.00 0.00 0.00 74 1009.7
20260510004321 67 341 0.0 0.0 0.00 0.00 0.00 73 1009.6
20260510003313 68 341 0.0 0.0 0.00 0.00 0.00 71 1009.4
20260510002330 69 341 0.0 0.0 0.00 0.00 0.00 69 1009.6
20260510001320 70 341 0.0 0.0 0.00 0.00 0.00 68 1009.6
20260510000337 70 341 0.0 1.0 0.00 0.00 0.00 66 1009.1
20260509235328 71 341 0.0 1.0 0.00 0.00 0.00 65 1009.0
20260509234344 73 341 0.0 4.0 0.00 0.00 0.00 63 1008.8
20260509233341 74 341 0.0 2.0 0.00 0.00 0.00 60 1008.9
20260509232337 76 341 0.0 3.0 0.00 0.00 0.00 59 1008.9
20260509231329 76 341 0.0 6.0 0.00 0.00 0.00 58 1008.8
20260509230320 77 341 1.0 5.0 0.00 0.00 0.00 57 1008.9
20260509225337 76 341 0.0 6.0 0.00 0.00 0.00 57 1008.9